User: anonymous
Location: Niverville
(49.6028°N, 97.0419°W)
Time: 00:59:07
(UTC-05:00)
Language:

Cosmos 1154 Rocket - Orbit

View from above orbital plane
View from above orbital plane
View from above satellite
View from above satellite

Ground track
Ground track

The orbit data is extracted from the following two-line orbital elements,

1 11683U 80008B   14273.77035741  .00508151  12510-3  64037-3 0  5425
2 11683 081.1559 253.8797 0003653 123.3667 236.7960 16.07534196909065
Epoch (UTC): 30 September 2014 18:29:18
Eccentricity: 0.0003653
inclination: 81.1559°
perigee height: 251 km
apogee height: 256 km
right ascension of ascending node: 253.8797°
argument of perigee: 123.3667°
revolutions per day: 16.07534196
mean anomaly at epoch: 236.7960°
orbit number at epoch: 90906

The dashed part of the orbit path shows where the satellite is in the earth's shadow,  

DLR